Probability
6 6 6 10 3 3 0 0 0 0 0 0 0 0 0 0 0 0 0 0 0 0 0 0 0 0 3 3 3 10 6 13 13 10 10 10 3 6
6 3 3 3 3 0 0 0 0 0 0 0 0 0 0 0 0 0 0 0 0 0 0 0 0 0 0 0 0 0 0 3 3 10 6 6 3 3
3 0 3 3 0 0 0 0 0 0 0 0 0 0 0 0 0 0 0 0 0 0 0 0 0 0 0 0 0 0 0 0 3 6 3 3 3 3
3 0 0 0 0 0 0 0 0 0 0 0 0 0 0 0 0 0 0 0 0 0 0 0 0 0 0 0 0 0 0 0 0 0 3 3 3 3
6 3 0 0 0 0 0 0 0 0 0 0 0 0 0 0 0 0 0 0 0 0 0 0 0 0 0 0 0 0 0 0 0 0 0 0 0 3
3 3 0 0 0 0 0 0 0 0 0 0 0 0 0 0 0 0 0 0 0 0 0 0 0 0 0 0 0 0 0 0 0 0 0 0 0 3
3 3 0 0 0 0 0 0 0 0 0 0 0 0 0 0 0 0 0 0 0 0 0 0 0 0 0 0 0 0 0 0 0 0 0 0 0 0
6 3 0 0 0 0 0 0 0 0 0 0 0 0 0 0 0 0 0 0 0 0 0 0 0 0 0 0 0 0 0 0 0 0 0 0 0 0
3 3 3 0 0 0 0 0 0 0 0 0 0 0 0 0 0 0 0 0 0 0 0 0 0 0 0 0 0 0 0 0 0 0 0 0 0 0
3 3 3 3 0 0 0 0 0 0 0 0 0 0 0 0 0 0 0 0 0 0 0 0 0 0 0 0 0 0 0 0 0 0 0 0 0 0
3 3 3 3 3 0 0 0 0 0 0 0 0 0 0 0 0 0 0 0 0 0 0 0 0 0 0 0 0 0 0 0 0 0 0 0 0 0
0 3 3 3 3 0 0 0 0 0 0 0 0 0 0 0 0 0 0 0 0 0 0 0 0 0 0 0 0 0 0 0 0 0 0 0 0 0
0 0 3 3 0 0 0 0 0 0 0 0 0 0 0 0 0 0 0 0 0 0 0 0 0 0 0 0 0 0 0 0 0 0 0 0 0 0
0 0 0 0 0 0 0 0 0 0 0 0 0 0 0 0 0 0 0 0 0 0 0 0 0 0 0 0 0 0 0 0 0 0 0 0 0 0
0 0 0 0 0 0 0 0 0 0 0 0 0 0 0 0 0 0 0 0 0 0 0 0 0 0 0 0 0 0 0 0 0 0 0 0 0 0
0 0 0 0 0 0 0 0 0 0 0 0 0 0 0 0 0 0 0 0 0 0 0 0 0 0 0 0 0 0 0 0 0 0 0 0 0 0
0 0 0 0 0 0 0 0 0 0 0 0 0 0 0 0 0 0 0 0 0 0 0 0 0 0 0 0 0 0 0 0 0 0 0 0 0 0
0 0 0 0 0 0 0 0 0 0 0 0 0 0 0 0 0 0 0 0 0 0 0 0 0 0 0 0 0 0 0 0 0 0 0 0 0 0
0 0 0 0 0 0 0 0 0 0 0 0 0 0 0 0 0 0 0 0 0 0 0 0 0 0 0 0 0 0 0 0 0 0 0 0 0 0
0 0 0 0 0 0 0 0 0 0 0 0 0 0 0 0 0 0 0 0 0 0 0 0 0 0 0 0 0 0 0 0 0 0 0 0 0 0
0 0 0 0 0 0 0 0 0 0 0 0 0 0 0 0 0 0 0 0 0 0 0 0 0 0 0 0 0 0 0 0 0 0 0 0 0 0
0 0 0 0 0 0 0 0 0 0 0 0 0 0 0 0 0 0 0 0 0 0 0 0 0 0 0 0 0 0 0 0 0 0 0 0 0 0
0 0 0 0 0 0 0 0 0 0 0 0 0 0 0 0 0 0 0 0 0 0 0 0 0 0 0 0 0 0 0 0 0 0 0 0 0 0
Height
5812 5811 5811 5811 5811 5810 5809 5809 5808 5807 5806 5804 5803 5802 5800 5799 5798 5797 5796 5795 5794 5793 5792 5791 5791 5790 5789 5789 5789 5789 5789 5789 5789 5789 5789 5790 5790 5790
5807 5806 5806 5806 5805 5805 5804 5803 5802 5802 5801 5799 5798 5796 5795 5794 5793 5792 5791 5790 5789 5788 5787 5786 5785 5785 5784 5784 5783 5783 5783 5783 5784 5784 5784 5785 5785 5785
5802 5801 5801 5800 5800 5799 5799 5798 5797 5796 5795 5794 5792 5791 5790 5789 5788 5787 5786 5784 5783 5782 5781 5780 5780 5779 5779 5778 5778 5778 5778 5778 5778 5779 5779 5779 5779 5780
5797 5796 5796 5795 5794 5794 5793 5792 5791 5790 5789 5788 5787 5785 5784 5783 5782 5781 5780 5779 5778 5777 5776 5775 5774 5774 5773 5773 5773 5773 5773 5773 5773 5773 5774 5774 5775 5775
5791 5791 5790 5790 5789 5788 5787 5787 5785 5784 5783 5782 5781 5780 5779 5778 5776 5775 5774 5773 5772 5771 5771 5770 5769 5768 5768 5768 5768 5768 5768 5768 5768 5768 5769 5769 5769 5770
5785 5785 5784 5784 5783 5782 5782 5781 5780 5778 5777 5776 5775 5774 5773 5772 5771 5770 5769 5768 5767 5766 5765 5764 5764 5763 5763 5763 5763 5763 5762 5763 5763 5763 5763 5764 5764 5764
5779 5779 5778 5778 5777 5776 5776 5775 5774 5772 5771 5770 5769 5768 5767 5766 5765 5764 5763 5762 5761 5760 5759 5759 5758 5758 5757 5757 5757 5757 5757 5757 5757 5757 5758 5758 5758 5758
5773 5773 5772 5771 5771 5770 5769 5768 5767 5766 5765 5763 5762 5762 5761 5760 5759 5758 5757 5756 5756 5755 5754 5753 5752 5752 5751 5751 5751 5751 5751 5751 5751 5751 5751 5752 5752 5752
5766 5766 5765 5764 5764 5763 5762 5761 5760 5759 5758 5757 5756 5755 5754 5754 5753 5752 5751 5750 5749 5748 5747 5747 5746 5745 5745 5745 5745 5745 5745 5745 5745 5745 5745 5745 5745 5745
5759 5758 5758 5757 5756 5755 5755 5754 5753 5752 5751 5750 5749 5748 5747 5747 5746 5745 5744 5743 5742 5741 5740 5740 5739 5738 5738 5738 5738 5738 5738 5738 5738 5737 5737 5737 5737 5737
5751 5751 5750 5749 5749 5748 5748 5747 5746 5745 5744 5743 5742 5741 5740 5739 5738 5737 5736 5736 5735 5734 5733 5732 5732 5731 5731 5730 5730 5730 5730 5730 5730 5730 5730 5730 5729 5729
5744 5743 5742 5742 5741 5740 5740 5739 5739 5738 5737 5736 5735 5734 5732 5731 5730 5729 5728 5728 5727 5726 5725 5724 5724 5723 5723 5723 5722 5722 5722 5722 5722 5722 5722 5722 5721 5721
5735 5734 5734 5733 5733 5732 5731 5731 5730 5729 5728 5727 5726 5725 5724 5723 5722 5721 5720 5719 5718 5718 5717 5716 5716 5715 5715 5715 5715 5714 5714 5714 5714 5714 5714 5713 5713 5713
5726 5725 5725 5724 5724 5723 5723 5722 5721 5720 5719 5718 5717 5717 5716 5715 5714 5713 5711 5710 5710 5709 5708 5707 5707 5706 5706 5706 5706 5706 5706 5706 5706 5705 5705 5705 5705 5704
5717 5716 5716 5715 5714 5714 5714 5713 5712 5711 5710 5709 5708 5707 5706 5705 5704 5703 5702 5701 5700 5700 5699 5698 5698 5697 5696 5697 5697 5697 5696 5696 5696 5696 5696 5696 5696 5695
5708 5707 5706 5706 5705 5704 5704 5703 5702 5701 5700 5699 5698 5697 5696 5695 5694 5693 5693 5692 5691 5690 5689 5688 5688 5687 5687 5686 5686 5686 5686 5686 5686 5686 5686 5686 5686 5686
5698 5698 5697 5696 5696 5695 5694 5694 5693 5691 5690 5689 5688 5687 5686 5685 5684 5683 5682 5681 5681 5680 5679 5679 5678 5677 5677 5676 5676 5676 5676 5676 5676 5676 5676 5676 5676 5676
5689 5688 5688 5687 5686 5685 5685 5684 5683 5682 5680 5679 5678 5677 5676 5675 5674 5673 5672 5671 5671 5670 5669 5668 5668 5667 5667 5666 5666 5665 5665 5665 5665 5665 5665 5665 5665 5665
5680 5679 5678 5677 5676 5675 5675 5674 5673 5672 5671 5670 5669 5668 5666 5665 5664 5663 5662 5661 5660 5659 5659 5658 5657 5657 5656 5656 5656 5655 5655 5654 5654 5654 5653 5654 5654 5654
5671 5670 5668 5667 5666 5666 5665 5664 5664 5663 5662 5661 5659 5658 5657 5656 5654 5653 5652 5651 5650 5649 5648 5647 5647 5646 5645 5645 5645 5645 5644 5643 5643 5643 5643 5643 5643 5643
5662 5661 5659 5658 5657 5656 5656 5655 5654 5653 5652 5651 5650 5649 5648 5646 5645 5644 5642 5641 5640 5639 5638 5637 5636 5635 5634 5634 5634 5634 5633 5633 5632 5632 5632 5632 5633 5633
5653 5652 5651 5650 5648 5648 5647 5646 5645 5644 5643 5642 5641 5640 5638 5637 5636 5634 5633 5632 5630 5629 5628 5627 5626 5625 5624 5624 5624 5624 5623 5623 5622 5622 5622 5622 5622 5622
5644 5643 5642 5641 5640 5639 5638 5637 5636 5635 5634 5633 5632 5631 5629 5628 5626 5624 5623 5622 5621 5620 5618 5617 5616 5615 5614 5614 5614 5614 5613 5613 5612 5612 5613 5612 5612 5612
Wind_Speed
19 18 18 17 17 17 17 17 17 18 18 18 18 18 18 18 18 18 17 18 18 18 19 19 18 18 17 17 17 17 18 18 19 20 19 19 20 20
19 18 18 18 18 18 18 18 18 18 18 18 19 18 18 18 18 18 18 18 18 18 18 18 18 18 18 18 17 17 17 18 18 18 19 19 19 20
19 19 19 19 18 19 19 19 18 18 18 19 19 19 19 19 19 19 19 18 18 18 18 18 18 17 17 17 17 18 17 17 17 17 18 19 19 20
19 19 19 19 19 20 20 20 20 20 19 19 18 19 19 19 19 19 19 18 18 18 18 18 17 17 17 17 17 17 17 17 17 18 18 19 19 19
20 20 20 20 20 19 20 20 20 20 20 20 19 19 19 19 19 19 19 19 18 18 18 18 18 18 17 17 17 17 17 17 17 18 18 18 19 19
20 20 20 20 20 19 19 20 20 20 20 20 20 20 19 19 19 18 18 19 19 18 18 18 19 19 19 19 19 19 19 19 19 18 19 19 19 19
20 20 20 20 20 20 20 20 21 21 20 21 21 20 20 19 19 19 19 19 19 20 20 20 20 20 19 19 20 20 20 21 21 20 20 20 21 20
21 21 22 22 22 22 22 21 21 21 20 21 21 20 20 20 20 20 20 20 20 21 21 21 21 21 20 20 20 20 20 21 21 22 22 22 22 22
21 22 22 23 23 23 23 23 22 22 21 22 21 21 21 21 21 21 21 21 21 21 22 22 22 22 22 22 21 21 21 21 22 23 23 24 24 24
23 23 23 23 23 22 22 22 22 22 22 22 22 22 22 23 23 22 22 22 22 22 22 23 23 23 23 23 23 23 22 22 22 23 24 25 25 25
23 24 24 23 23 23 23 23 23 23 23 23 22 22 23 23 24 24 24 24 23 24 24 24 23 24 24 25 24 24 24 24 23 24 25 26 27 26
25 25 25 25 24 25 25 25 24 24 25 25 25 25 24 24 24 25 25 25 25 25 25 25 24 24 24 24 25 25 24 24 24 25 25 26 26 26
26 26 26 26 26 27 26 26 26 26 27 27 26 26 26 26 26 26 26 26 26 25 25 25 25 25 25 24 24 25 25 25 25 26 26 26 27 27
27 27 27 27 27 27 27 27 27 27 27 27 27 27 27 27 27 27 27 27 27 26 26 26 27 27 27 27 27 27 28 28 28 27 28 27 27 27
28 28 28 28 28 28 28 27 27 27 27 28 28 28 28 29 29 28 28 28 28 28 28 28 28 28 29 29 29 29 29 29 29 29 29 29 28 28
28 27 27 27 27 28 28 28 27 28 28 28 28 29 29 29 29 29 30 29 29 29 29 29 29 29 29 30 30 30 30 30 30 30 30 30 30 29
27 27 27 27 27 28 28 28 28 28 29 29 29 29 29 30 30 30 30 30 30 30 29 30 30 30 30 30 30 30 31 31 30 30 31 31 31 30
27 27 27 28 28 28 28 28 28 28 28 28 28 28 29 29 30 30 30 30 30 30 30 30 30 30 30 30 30 30 30 30 31 31 31 31 31 31
27 27 28 28 27 27 27 27 27 27 27 27 27 28 28 28 29 30 30 30 30 30 31 31 31 31 31 31 31 31 30 30 30 31 31 31 31 31
27 27 27 27 27 27 27 27 26 26 27 27 27 27 28 28 28 29 29 29 29 30 31 31 31 31 31 30 30 30 31 31 30 30 30 31 31 31
26 26 26 26 26 26 26 26 26 27 27 27 27 27 27 28 27 28 28 28 29 30 30 30 30 30 30 30 29 30 30 31 31 30 30 30 30 30
26 26 26 26 26 27 27 27 27 27 27 28 28 27 27 28 28 28 28 28 29 29 29 29 30 30 30 30 29 29 29 29 30 30 30 30 30 30
27 27 27 27 27 27 27 28 28 28 27 27 27 27 27 27 27 27 27 27 27 27 28 28 29 29 29 29 28 28 28 29 29 29 29 30 30 31
Wind_Direction
274 272 270 272 272 272 276 278 280 279 278 279 277 278 278 280 281 281 282 281 279 276 276 276 277 277 275 273 270 268 267 265 264 262 262 262 261 261
272 271 272 272 272 273 276 278 279 279 280 280 279 277 277 280 281 281 283 282 279 277 276 275 274 274 273 272 270 269 267 264 263 263 263 263 261 259
274 273 273 272 272 274 277 279 280 279 280 279 278 278 277 278 280 280 281 281 278 276 276 276 275 273 271 270 268 267 266 265 262 261 261 261 261 259
273 274 274 273 274 276 279 280 279 280 282 281 281 279 277 276 278 280 280 278 276 275 275 276 275 272 268 266 266 263 264 264 262 258 259 261 262 263
273 273 273 273 276 279 280 280 281 281 281 280 281 281 280 277 278 278 278 277 276 275 275 274 272 271 269 266 265 262 263 263 261 259 260 261 261 262
273 273 273 273 277 279 280 280 281 281 280 278 279 280 280 279 278 277 276 276 276 275 275 274 272 270 268 266 265 263 263 263 263 262 261 261 262 263
272 271 274 276 277 278 280 280 279 280 279 278 278 277 277 277 277 277 277 276 275 275 275 274 272 269 268 266 266 266 267 267 265 264 264 263 263 264
273 273 275 277 277 277 277 278 279 278 277 278 278 277 277 277 277 278 277 276 274 274 274 274 272 269 266 266 267 267 267 267 265 264 264 263 263 263
272 273 276 275 275 277 276 275 276 276 276 277 276 276 275 277 277 276 276 275 275 274 274 273 272 269 267 266 266 267 267 268 266 264 262 263 263 264
271 273 275 274 275 277 276 274 274 275 275 275 275 276 276 275 276 277 277 277 275 274 273 272 271 270 268 267 267 268 268 267 267 267 265 264 265 266
272 273 273 274 273 274 274 273 273 273 273 275 274 275 276 275 276 276 276 277 276 275 275 273 271 270 268 268 267 267 268 268 267 266 266 266 267 267
272 273 272 272 271 273 275 274 273 273 272 273 273 274 275 276 277 277 276 276 276 275 274 273 272 271 270 270 268 267 268 268 268 268 267 268 269 268
272 271 271 270 271 273 274 274 274 273 272 272 273 273 274 275 276 276 276 276 275 274 274 273 272 271 270 269 269 267 268 268 268 268 268 268 268 269
273 272 271 270 271 272 273 274 273 273 274 273 272 272 273 274 275 275 274 275 275 276 274 272 271 270 269 269 268 268 268 268 269 269 269 270 270 270
274 273 272 272 271 271 271 271 272 273 274 274 273 273 272 273 274 275 274 274 274 275 274 272 272 270 269 269 268 268 268 268 269 268 268 269 271 271
274 273 273 272 272 271 270 270 272 273 274 274 274 273 272 272 272 274 274 274 274 274 274 273 272 272 271 270 270 269 269 269 268 267 267 268 269 270
275 273 272 272 273 273 272 272 272 274 274 274 274 274 274 273 273 273 274 275 274 273 274 273 272 273 272 272 272 272 270 268 268 268 268 268 268 268
276 274 274 274 274 274 273 273 273 274 274 274 275 276 276 275 274 273 274 274 274 274 273 274 274 274 274 273 272 271 271 270 269 269 268 267 266 267
279 277 276 274 274 273 273 273 273 274 274 275 276 277 277 277 275 275 275 275 275 274 273 273 274 273 274 273 272 271 270 270 270 269 268 268 266 266
279 278 277 275 273 273 273 273 273 274 275 275 275 276 277 277 277 276 276 276 276 275 275 274 275 274 273 273 272 271 269 270 270 269 268 268 267 266
279 278 277 276 274 273 273 273 274 274 276 276 276 277 277 278 278 278 276 276 277 277 277 275 275 275 274 273 272 271 269 269 270 271 270 269 268 266
279 278 278 277 275 273 273 273 274 275 276 277 277 278 278 280 280 279 277 276 277 278 278 276 274 274 274 273 272 271 269 268 269 271 271 270 270 268
278 277 277 276 275 273 274 274 274 275 276 277 277 277 279 281 281 280 278 277 277 278 278 277 275 274 274 274 273 272 270 269 270 271 271 270 271 270